Location: Unspecified
(41.4057°N, 2.1753°E)
Time: 19:54:58
(UTC+02:00)

ISS - Visible Passes

Search period start: 23 July 2014 00:00
Search period end: 02 August 2014 00:00
Orbit: 411 x 419 km, 51.6° (Epoch: 23 July)

Date Brightness Start Highest point End Pass type
(mag) Time Alt. Az. Time Alt. Az. Time Alt. Az.
23 Jul -1.7 03:37:11 35° NE 03:37:11 35° NE 03:39:18 10° NE visible
23 Jul -0.9 05:10:29 10° WNW 05:13:03 20° NNW 05:15:37 10° NNE visible
24 Jul -0.3 02:50:05 13° ENE 02:50:05 13° ENE 02:50:29 10° ENE visible
24 Jul -1.4 04:22:57 21° NW 04:24:05 25° NNW 04:26:58 10° NE visible
24 Jul -0.5 05:59:44 10° NW 06:01:41 14° N 06:03:38 10° NNE visible
25 Jul -1.5 03:35:49 32° N 03:35:49 32° N 03:38:18 10° NE visible
25 Jul -0.5 05:10:34 10° NW 05:12:38 15° N 05:14:42 10° NNE visible
26 Jul -0.5 02:48:40 17° NE 02:48:40 17° NE 02:49:37 10° NE visible
26 Jul -0.6 04:21:32 11° NW 04:23:36 17° NNW 04:25:55 10° NNE visible
26 Jul -0.4 05:59:12 10° NNW 06:01:19 16° N 06:03:26 10° NE visible
27 Jul -0.9 03:34:22 21° NNW 03:34:36 21° NNW 03:37:13 10° NNE visible
27 Jul -0.3 05:10:19 10° NNW 05:12:16 15° N 05:14:13 10° NE visible
28 Jul -0.4 02:47:12 19° NNE 02:47:12 19° NNE 02:48:33 10° NE visible
28 Jul -0.3 04:21:15 10° NW 04:23:12 14° N 04:25:10 10° NNE visible
28 Jul -0.6 05:58:14 10° NW 06:00:52 21° NNE 06:03:30 10° ENE visible
29 Jul -0.4 03:32:53 13° NNW 03:34:09 15° N 03:36:16 10° NNE visible
29 Jul -0.3 05:09:32 10° NNW 05:11:52 17° NNE 05:14:12 10° ENE visible
30 Jul -0.3 02:45:43 17° N 02:45:43 17° N 02:47:29 10° NNE visible
30 Jul -0.2 04:20:45 10° NNW 04:22:49 15° N 04:24:54 10° NE visible
30 Jul -1.5 05:57:08 10° NW 06:00:17 35° NNE 06:03:25 10° E visible
31 Jul 0.1 01:58:36 11° NNE 01:58:36 11° NNE 01:58:47 10° NE visible
31 Jul -0.1 03:31:49 10° NNW 03:33:46 14° N 03:35:42 10° NE visible
31 Jul -0.9 05:08:28 10° NW 05:11:21 26° NNE 05:14:14 10° E visible
01 Aug -0.1 02:44:26 14° N 02:44:41 15° N 02:46:39 10° NNE visible
01 Aug -0.5 04:19:47 10° NNW 04:22:22 20° NNE 04:24:57 10° ENE visible
01 Aug -3.2 05:56:07 10° NW 05:59:30 84° NE 06:02:51 10° SE visible
